Tracking 19176 objects as of 25-May-2018
HD Live streaming from Space Station
objects crossing your sky now

PSLV R/B

Track PSLV R/B now!
10-day predictions


NORAD ID: 42796
Int'l Code: 2017-036AH
Perigee: 275.9 km
Apogee: 292.7 km
Inclination: 94.6 °
Period: 90.1 minutes
Semi major axis: 6655 km
RCS: Unknown
Launch date: June 23, 2017
Source: India (IND)
Launch site: SRIHARIKOTA (SRI)

Note: This is a ROCKET BODY
aabbcc
Your satellite tracking list
Your tracking list is empty




NASA's NSSDC Master Catalog

Two Line Element Set (TLE):
1 42796U 17036AH  18144.92540680 +.00099985 +47770-5 +20766-3 0  9991
2 42796 094.6081 100.1736 0012643 061.9679 298.2882 15.98999086052897
Source of the keplerian elements: AFSPC